Flag for China Weather past 2 weeks in Kashgar, Xinjiang, China

Now
64 °F

Clear.


Feels Like: 64 °F
Forecast: 64 / 83 °F
Wind: 13 mph from Northwest

Location: Kashi Airport

Current Time: May 23, 2015 at 5:32:04 AM

Latest Report: May 23, 2015 at 4:00 AM


Visibility: 10 mi

Pressure: 29.86 "Hg

Humidity: 22%

Dew point: 25 °F

Location of KashgarLocation

Historic Weather in Kashgar — Graph

°F

Kashgar temperature yesterday

Maximum temperature yesterday: 82 °F (at 4:00 PM)
Minimum temperature yesterday: 63 °F (at 8:00 AM)
Average temperature yesterday: 72 °F

Past Weeks' High & Low Weather Summary

 TemperatureHumidityPressure
High90 °F (May 8, 5:00 PM)73% (May 13, 11:00 AM)30.18 "Hg (May 13, 11:00 AM)
Low61 °F (May 19, 8:00 AM)4% (May 18, 5:00 PM)29.71 "Hg (May 9, 5:00 AM)
Average75 °F23%29.92 "Hg
* Reported May 8 4:00 AM — May 23 4:00 AM, Kashgar, Weather by CustomWeather, © 2015

Note: Actual official high and low records may vary slightly from our data, if they occured in-between our weather recording intervals... More about our weather records

Advertising

Kashgar weather history for previous 24 hours

 ConditionsComfort  
Time TempWeatherWind HumidityBarometerVisibility
4:00 AM
Sat, May 23
64 °FClear.13 mph22%29.86 "Hg10 mi
3:00 AM66 °FClear.13 mph22%29.89 "Hg10 mi
2:00 AM66 °FClear.3 mph28%29.92 "Hg10 mi
1:00 AM68 °FClear.8 mph26%29.92 "Hg10 mi
12:00 AM70 °FClear.10 mph21%29.92 "Hg10 mi
11:00 PM
Fri, May 22
70 °FPassing clouds.24 mph21%29.89 "HgN/A
10:00 PM70 °FSandstorm.38 mph23%29.86 "Hg3 mi
9:00 PM72 °FPartly sunny.31 mph22%29.83 "Hg6 mi
8:00 PM77 °FSandstorm.29 mph19%29.80 "Hg1 mi
7:00 PM82 °FPassing clouds.6 mph17%29.77 "HgN/A
6:00 PM81 °FPassing clouds.3 mph18%29.77 "HgN/A
5:00 PM81 °FPassing clouds.6 mph18%29.80 "HgN/A
4:00 PM82 °FPassing clouds.10 mph17%29.83 "HgN/A
3:00 PM81 °FPassing clouds.8 mph20%29.86 "HgN/A
2:00 PM77 °FPassing clouds.10 mph22%29.92 "HgN/A
1:00 PM75 °FPassing clouds.13 mph24%29.92 "HgN/A
12:00 PM73 °FSunny.10 mph27%29.95 "Hg10 mi
11:00 AM72 °FSunny.8 mph23%29.95 "Hg10 mi
10:00 AM68 °FSunny.1 mph35%29.95 "Hg10 mi
9:00 AM66 °FSunny.6 mph30%29.95 "Hg10 mi
8:00 AM63 °FSunny.6 mph39%29.95 "Hg10 mi
7:00 AM64 °FClear.10 mph34%29.95 "Hg10 mi
6:00 AM64 °FPassing clouds.17 mph37%29.95 "HgN/A
5:00 AM64 °FPassing clouds.22 mph37%29.98 "HgN/A
Weather by CustomWeather, © 2015

See weather overviewHow to use our weather pages